格洛纳斯-748 COSMOS 2110 [GLONASS]

导读

COSMOS 2110(又名格洛纳斯-748),是苏联解体前独联体CIS于1990年12月8日发射的第一代GLONASS全球导航卫星。它运行在中地球轨道,轨道倾角64.8度,轨道周期约675.7分钟,设计寿命约为5年,由俄罗斯列舍特涅夫卫星信息系统研制并运营。 该卫星主要服务于军事和民用领域,可提供全球高精度定位导航服务,与GPS、北斗等系统兼容,服役期间为俄罗斯及全球用户提供了关键导航支持,现已完成服役任务退役。

Basic Information
目录编号:
21007
目录名称:
COSMOS 2110 (GLONASS)
国际标识:
1990-110B
轨道中心:
EARTH
卫星名称:
格洛纳斯-748
卫星全名:
格洛纳斯-748 COSMOS 2110 [GLONASS]
卫星状态:
在轨 (已飞行12970 天)
发射日期:
1990-12-08 UTC
国别 :
俄罗斯(独联体) (CIS)
星等 :
--
Orbit Information
数据来源 国际轨道数据 AOE轨道数据
星历时间 2026-06-09T20:57:24+0800
3天前
查看轨道信息
2026-06-11T07:00:00+0800
1天前
查看轨道信息
半长轴 25508.089km 25508.073km
偏心率 0.0042712 0.0042658
轨道倾角 64.934° 64.935°
近地点辐角 201.149° 200.947°
升交点赤经 71.823° 71.775°
平近点角 330.864° 339.268°
近地点 19021.001km 19021.123km
远地点 19238.903km 19238.749km
周期 675.735分钟 675.735分钟
每日圈数 2.131012 2.131014
Detailed Information
平衡模式:
三轴稳定
覆盖范围:
全球
运营商:
列舍特涅夫卫星信息系统
运营商所在国:
俄罗斯
制造商(研发单位):
列舍特涅夫卫星信息系统
制造商所在国:
俄罗斯
使用方式:
暂无
Satellite Introduction
格洛纳斯(GLONASS )是苏联/俄罗斯研制卫星导航系统。标准配置为24颗卫星,其中18颗卫星就能保证该系统为俄罗斯境内用户提供全部服务。该卫星已退役。
2D Orbit Map
3D Orbit Map
Orbit Altitude Analysis Chart
Orbit Inclination Analysis Chart
Orbit Comprehensive Analysis Chart
View Comprehensive Chart